Flag for U.S.A. Weather past 2 weeks in Waterbury, Connecticut, U.S.A.

Now
55 °F

Mostly cloudy.


Feels Like: 55 °F
Forecast: 52 / 69 °F
Wind: 5 mph from North

Location: Oxford

Current Time: Sep 16, 2014 at 11:26:13 AM

Latest Report: Sep 16, 2014 at 10:50 AM


Visibility: 8 mi

Pressure: 30.03 "Hg

Humidity: 88%

Dew point: 52 °F

Location of WaterburyLocation

Historic Weather in Waterbury — Graph

°F

Waterbury temperature yesterday

Maximum temperature yesterday: 64 °F (at 1:50 PM)
Minimum temperature yesterday: 45 °F (at 5:50 AM)
Average temperature yesterday: 52 °F

Past Weeks' High & Low Weather Summary

 TemperatureHumidityPressure
High88 °F (Sep 2, 1:52 PM)100% (Sep 12, 9:50 AM)30.38 "Hg (Sep 12, 9:50 AM)
Low45 °F (Sep 15, 5:50 AM)39% (Sep 7, 2:50 PM)28.22 "Hg (Sep 2, 6:52 PM)
Average63 °F74%30.11 "Hg
* Reported Sep 1 9:50 AM — Sep 16 9:50 AM, Waterbury, Weather by CustomWeather, © 2014

Note: Actual official high and low records may vary slightly from our data, if they occured in-between our weather recording intervals... More about our weather records

Advertising

Waterbury weather history for previous 24 hours

 ConditionsComfort  
Time TempWeatherWind HumidityBarometerVisibility
9:50 AM
Sep 16
55 °FLight rain. Fog.5 mphN/A30.05 "Hg4 mi
8:50 AM55 °FLight rain. Fog.7 mph77%30.07 "Hg4 mi
7:50 AM55 °FScattered clouds.3 mph82%30.02 "Hg8 mi
6:50 AM52 °FPassing clouds.5 mph82%30.04 "Hg8 mi
5:50 AM52 °FPassing clouds.No wind82%30.05 "Hg10 mi
5:35 AM52 °FPassing clouds.No wind82%30.06 "Hg10 mi
5:15 AM52 °FPassing clouds.No wind82%30.06 "Hg10 mi
4:55 AM52 °FPassing clouds.No wind82%30.06 "Hg10 mi
4:35 AM54 °FPassing clouds.No wind77%30.06 "Hg10 mi
4:15 AM54 °FOvercast.No wind77%30.07 "Hg10 mi
3:55 AM54 °FPassing clouds.No wind77%30.06 "Hg10 mi
3:35 AM54 °FOvercast.No wind77%30.06 "Hg10 mi
3:15 AM54 °FPassing clouds.No wind77%30.06 "Hg10 mi
2:55 AM54 °FOvercast.No wind77%30.07 "Hg10 mi
2:35 AM54 °FPassing clouds.No wind77%30.08 "Hg10 mi
1:55 AM54 °FClear.No wind72%30.09 "Hg10 mi
1:35 AM52 °FClear.No wind77%30.09 "Hg10 mi
1:15 AM52 °FClear.3 mph77%30.09 "Hg10 mi
12:55 AM52 °FClear.3 mph72%30.09 "Hg10 mi
12:35 AM50 °FClear.No wind76%30.10 "Hg10 mi
12:15 AM50 °FClear.3 mph76%30.11 "Hg10 mi
11:55 PM
Sep 15
48 °FClear.No wind76%30.11 "Hg10 mi
11:35 PM48 °FClear.No wind76%30.12 "Hg10 mi
10:55 PM50 °FClear.No wind76%30.12 "Hg10 mi
10:35 PM52 °FClear.No wind72%30.13 "Hg10 mi
10:15 PM52 °FClear.No wind77%30.12 "Hg10 mi
9:55 PM54 °FClear.3 mph72%30.11 "Hg10 mi
9:35 PM52 °FClear.No wind77%30.12 "Hg10 mi
9:15 PM52 °FClear.No wind77%30.13 "Hg10 mi
7:50 PM54 °FBroken clouds.No wind67%30.13 "Hg10 mi
6:50 PM59 °FBroken clouds.No wind55%30.13 "Hg10 mi
5:50 PM64 °FScattered clouds.3 mph43%30.14 "Hg10 mi
3:50 PM64 °FMild.9 mph46%30.16 "Hg3 mi
2:50 PM64 °FPassing clouds.6 mph49%30.17 "Hg10 mi
1:50 PM64 °FPassing clouds.7 mph46%30.18 "Hg10 mi
12:50 PM63 °FPassing clouds.8 mph49%30.21 "Hg10 mi
11:50 AM61 °FPassing clouds.8 mph52%30.22 "Hg10 mi
Weather by CustomWeather, © 2014

See weather overviewHow to use our weather pages